Time,TemperatureF,DewpointF,PressureIn,WindDirection,WindDirectionDegrees,WindSpeedMPH,WindSpeedGustMPH,Humidity,HourlyPrecipIn,Conditions,Clouds,dailyrainin,SoftwareType,DateUTC
2013-10-04 00:00:00,65.3,62.9,30.11,WSW,239,0.0,0.0,92,0.00,,,0.00,VWS V14.01,2013-10-04 04:00:00,
2013-10-04 00:32:00,64.2,62.1,30.10,WSW,240,0.0,0.0,93,0.00,,,0.00,VWS V14.01,2013-10-04 04:32:00,
2013-10-04 00:34:00,64.2,62.1,30.10,WSW,240,0.0,0.0,93,0.00,,,0.00,VWS V14.01,2013-10-04 04:34:00,
2013-10-04 00:35:00,64.1,62.0,30.10,WSW,239,0.0,0.0,93,0.00,,,0.00,VWS V14.01,2013-10-04 04:35:00,
2013-10-04 00:38:00,64.0,61.9,30.10,WSW,239,0.0,0.0,93,0.00,,,0.00,VWS V14.01,2013-10-04 04:38:00,
2013-10-04 00:43:00,63.7,61.6,30.10,WSW,239,0.0,0.0,93,0.00,,,0.00,VWS V14.01,2013-10-04 04:43:00,
2013-10-04 00:44:00,63.7,61.6,30.10,WSW,239,0.0,0.0,93,0.00,,,0.00,VWS V14.01,2013-10-04 04:44:00,
2013-10-04 00:46:00,63.7,62.0,30.10,WSW,238,0.0,0.0,94,0.00,,,0.00,VWS V14.01,2013-10-04 04:46:00,
2013-10-04 00:50:00,63.5,61.4,30.10,WSW,238,0.0,0.0,93,0.00,,,0.00,VWS V14.01,2013-10-04 04:50:00,
2013-10-04 00:52:00,63.4,61.7,30.10,WSW,238,0.0,0.0,94,0.00,,,0.00,VWS V14.01,2013-10-04 04:52:00,
2013-10-04 00:55:00,63.3,61.5,30.10,WSW,237,0.0,0.0,94,0.00,,,0.00,VWS V14.01,2013-10-04 04:55:00,
2013-10-04 00:57:00,63.2,61.5,30.10,WSW,237,0.0,0.0,94,0.00,,,0.00,VWS V14.01,2013-10-04 04:57:00,
2013-10-04 00:59:00,63.2,61.5,30.10,WSW,237,0.0,0.0,94,0.00,,,0.00,VWS V14.01,2013-10-04 04:59:00,
2013-10-04 01:00:00,63.1,61.3,30.10,WSW,237,0.0,0.0,94,0.00,,,0.00,VWS V14.01,2013-10-04 05:00:00,
2013-10-04 01:05:00,63.0,61.2,30.10,WSW,237,0.0,0.0,94,0.00,,,0.00,VWS V14.01,2013-10-04 05:05:00,
2013-10-04 01:06:00,62.9,61.2,30.10,SW,236,0.0,0.0,94,0.00,,,0.00,VWS V14.01,2013-10-04 05:06:00,
2013-10-04 01:09:00,62.8,61.0,30.10,SW,236,0.0,0.0,94,0.00,,,0.00,VWS V14.01,2013-10-04 05:09:00,
2013-10-04 01:12:00,62.7,61.0,30.10,SW,236,0.0,0.0,94,0.00,,,0.08,VWS V14.01,2013-10-04 05:12:00,
2013-10-04 01:16:00,62.6,60.8,30.10,SW,236,0.0,0.0,94,0.00,,,0.00,VWS V14.01,2013-10-04 05:16:00,
2013-10-04 01:19:00,62.6,60.8,30.10,SW,236,0.0,0.0,94,0.00,,,0.00,VWS V14.01,2013-10-04 05:19:00,
2013-10-04 01:24:00,62.6,61.2,30.10,SW,236,0.0,0.0,95,0.00,,,0.00,VWS V14.01,2013-10-04 05:24:00,
2013-10-04 01:31:00,62.4,61.0,30.10,SW,235,0.0,0.0,95,0.00,,,0.00,VWS V14.01,2013-10-04 05:31:00,
2013-10-04 01:36:00,62.3,60.8,30.10,SSW,192,0.0,0.0,95,0.00,,,0.00,VWS V14.01,2013-10-04 05:36:00,
2013-10-04 01:41:00,62.1,60.7,30.10,SSW,197,0.0,0.0,95,0.00,,,0.00,VWS V14.01,2013-10-04 05:41:00,
2013-10-04 01:46:00,62.0,60.6,30.10,SSW,197,0.0,0.0,95,0.00,,,0.00,VWS V14.01,2013-10-04 05:46:00,
2013-10-04 01:51:00,61.9,60.5,30.10,SSW,192,0.0,0.0,95,0.00,,,0.00,VWS V14.01,2013-10-04 05:51:00,
2013-10-04 01:56:00,61.8,60.4,30.10,SSW,196,0.0,0.0,95,0.00,,,0.00,VWS V14.01,2013-10-04 05:56:00,
2013-10-04 02:01:00,61.7,60.5,30.10,SSW,197,0.0,0.0,96,0.00,,,0.08,VWS V14.01,2013-10-04 06:01:00,
2013-10-04 02:06:00,61.6,60.2,30.10,SSW,192,0.0,0.0,95,0.00,,,0.00,VWS V14.01,2013-10-04 06:06:00,
2013-10-04 02:11:00,61.6,60.5,30.10,SSW,198,0.0,0.0,96,0.00,,,0.00,VWS V14.01,2013-10-04 06:11:00,
2013-10-04 02:16:00,61.5,60.3,30.10,SSW,200,0.0,0.0,96,0.00,,,0.00,VWS V14.01,2013-10-04 06:16:00,
2013-10-04 02:21:00,61.5,60.3,30.10,SSW,197,0.0,0.0,96,0.00,,,0.00,VWS V14.01,2013-10-04 06:21:00,
2013-10-04 02:26:00,61.5,60.3,30.10,SSW,198,0.0,0.0,96,0.00,,,0.00,VWS V14.01,2013-10-04 06:26:00,
2013-10-04 02:31:00,61.5,60.6,30.10,SSW,197,0.0,0.0,97,0.00,,,0.00,VWS V14.01,2013-10-04 06:31:00,
2013-10-04 02:36:00,61.5,60.3,30.10,SSW,200,0.0,0.0,96,0.00,,,0.00,VWS V14.01,2013-10-04 06:36:00,
2013-10-04 02:41:00,61.4,60.2,30.10,SSW,201,0.0,0.0,96,0.00,,,0.00,VWS V14.01,2013-10-04 06:41:00,
2013-10-04 02:46:00,61.3,60.2,30.10,SSW,199,0.0,0.0,96,0.00,,,0.00,VWS V14.01,2013-10-04 06:46:00,
2013-10-04 02:51:00,61.2,60.0,30.10,SSW,198,0.0,0.0,96,0.00,,,0.00,VWS V14.01,2013-10-04 06:51:00,
2013-10-04 02:56:00,61.1,60.0,30.10,SSW,198,0.0,0.0,96,0.00,,,0.00,VWS V14.01,2013-10-04 06:56:00,
2013-10-04 03:01:00,61.1,60.0,30.10,SSW,195,0.0,0.0,96,0.00,,,0.00,VWS V14.01,2013-10-04 07:01:00,
2013-10-04 03:06:00,61.0,59.9,30.10,SSW,194,0.0,0.0,96,0.00,,,0.00,VWS V14.01,2013-10-04 07:06:00,
2013-10-04 03:11:00,60.9,60.0,30.10,SSW,195,0.0,0.0,97,0.00,,,0.00,VWS V14.01,2013-10-04 07:11:00,
2013-10-04 03:16:00,60.8,59.7,30.10,SSW,194,0.0,0.0,96,0.00,,,0.00,VWS V14.01,2013-10-04 07:16:00,
2013-10-04 03:21:00,60.7,59.8,30.10,SSW,192,0.0,0.0,97,0.00,,,0.00,VWS V14.01,2013-10-04 07:21:00,
2013-10-04 03:26:00,60.7,59.8,30.10,SSW,195,0.0,0.0,97,0.00,,,0.00,VWS V14.01,2013-10-04 07:26:00,
2013-10-04 03:31:00,60.6,59.8,30.09,SSW,196,0.0,0.0,97,0.00,,,0.00,VWS V14.01,2013-10-04 07:31:00,
2013-10-04 03:36:00,60.4,59.5,30.09,SSW,194,0.0,0.0,97,0.00,,,0.00,VWS V14.01,2013-10-04 07:36:00,
2013-10-04 03:41:00,60.2,59.3,30.09,SSW,194,0.0,0.0,97,0.00,,,0.00,VWS V14.01,2013-10-04 07:41:00,
2013-10-04 03:46:00,60.1,59.2,30.09,SSW,193,0.0,0.0,97,0.00,,,0.00,VWS V14.01,2013-10-04 07:46:00,
2013-10-04 03:51:00,59.9,59.0,30.09,South,191,0.0,0.0,97,0.00,,,0.00,VWS V14.01,2013-10-04 07:51:00,
2013-10-04 03:56:00,59.8,59.0,30.09,South,190,0.0,0.0,97,0.00,,,0.00,VWS V14.01,2013-10-04 07:56:00,
2013-10-04 04:01:00,59.8,59.0,30.09,SSW,193,0.0,0.0,97,0.00,,,0.00,VWS V14.01,2013-10-04 08:01:00,
2013-10-04 04:06:00,59.7,58.8,30.09,South,191,0.0,0.0,97,0.00,,,0.00,VWS V14.01,2013-10-04 08:06:00,
2013-10-04 04:11:00,59.6,59.0,30.09,South,187,0.0,0.0,98,0.00,,,0.00,VWS V14.01,2013-10-04 08:11:00,
2013-10-04 04:16:00,59.6,59.0,30.09,South,187,0.0,0.0,98,0.00,,,0.00,VWS V14.01,2013-10-04 08:16:00,
2013-10-04 04:21:00,59.4,58.8,30.09,South,187,0.0,0.0,98,0.00,,,0.00,VWS V14.01,2013-10-04 08:21:00,
2013-10-04 04:26:00,59.3,58.7,30.09,SSW,193,0.0,0.0,98,0.00,,,0.00,VWS V14.01,2013-10-04 08:26:00,
2013-10-04 04:31:00,59.1,58.5,30.10,SSW,199,0.0,0.0,98,0.00,,,0.00,VWS V14.01,2013-10-04 08:31:00,
2013-10-04 04:36:00,59.0,58.4,30.10,SSW,196,0.0,0.0,98,0.00,,,0.00,VWS V14.01,2013-10-04 08:36:00,
2013-10-04 04:41:00,58.9,58.3,30.09,SSW,197,0.0,0.0,98,0.00,,,0.00,VWS V14.01,2013-10-04 08:41:00,
2013-10-04 04:46:00,58.8,58.2,30.09,SSW,198,0.0,0.0,98,0.00,,,0.00,VWS V14.01,2013-10-04 08:46:00,
2013-10-04 04:51:00,58.8,58.2,30.09,SSW,198,0.0,0.0,98,0.00,,,0.00,VWS V14.01,2013-10-04 08:51:00,
2013-10-04 04:56:00,58.8,58.2,30.09,SSW,196,0.0,0.0,98,0.00,,,0.00,VWS V14.01,2013-10-04 08:56:00,
2013-10-04 05:01:00,58.8,58.2,30.09,SSW,195,0.0,0.0,98,0.00,,,0.00,VWS V14.01,2013-10-04 09:01:00,
2013-10-04 05:06:00,58.7,58.1,30.09,SSW,195,0.0,0.0,98,0.00,,,0.08,VWS V14.01,2013-10-04 09:06:00,
2013-10-04 05:11:00,58.7,58.4,30.09,SSW,198,0.0,0.0,99,0.00,,,0.00,VWS V14.01,2013-10-04 09:11:00,
2013-10-04 05:16:00,58.6,58.0,30.09,SSW,196,0.0,0.0,98,0.00,,,0.00,VWS V14.01,2013-10-04 09:16:00,
2013-10-04 05:21:00,58.6,58.0,30.09,SSW,196,0.0,0.0,98,0.00,,,0.00,VWS V14.01,2013-10-04 09:21:00,
2013-10-04 05:26:00,58.6,58.3,30.09,SSW,195,0.0,0.0,99,0.00,,,0.00,VWS V14.01,2013-10-04 09:26:00,
2013-10-04 05:31:00,58.6,58.0,30.09,SSW,198,0.0,0.0,98,0.00,,,0.00,VWS V14.01,2013-10-04 09:31:00,
2013-10-04 05:36:00,58.6,58.3,30.09,SSW,198,0.0,0.0,99,0.00,,,0.00,VWS V14.01,2013-10-04 09:36:00,
2013-10-04 05:41:00,58.6,58.3,30.10,SSW,198,0.0,0.0,99,0.00,,,0.00,VWS V14.01,2013-10-04 09:41:00,
2013-10-04 05:46:00,58.6,58.3,30.10,SSW,196,0.0,0.0,99,0.00,,,0.00,VWS V14.01,2013-10-04 09:46:00,
2013-10-04 05:51:00,58.6,58.3,30.10,SSW,196,0.0,0.0,99,0.00,,,0.00,VWS V14.01,2013-10-04 09:51:00,
2013-10-04 05:56:00,58.6,58.3,30.10,SSW,200,0.0,0.0,99,0.00,,,0.00,VWS V14.01,2013-10-04 09:56:00,
2013-10-04 06:01:00,58.7,58.4,30.10,SSW,202,0.0,0.0,99,0.00,,,0.00,VWS V14.01,2013-10-04 10:01:00,
2013-10-04 06:07:00,58.7,58.4,30.11,SSW,202,0.0,0.0,99,0.00,,,0.00,VWS V14.01,2013-10-04 10:07:00,
2013-10-04 06:11:00,58.7,58.4,30.11,SSW,202,0.0,0.0,99,0.00,,,0.00,VWS V14.01,2013-10-04 10:11:00,
2013-10-04 06:17:00,58.8,58.8,30.11,SSW,202,0.0,0.0,100,0.00,,,0.00,VWS V14.01,2013-10-04 10:17:00,
2013-10-04 06:22:00,58.8,58.5,30.11,SSW,202,0.0,0.0,99,0.00,,,0.00,VWS V14.01,2013-10-04 10:22:00,
2013-10-04 06:27:00,58.8,58.8,30.11,SSW,202,0.0,0.0,100,0.00,,,0.00,VWS V14.01,2013-10-04 10:27:00,
2013-10-04 06:32:00,58.9,58.6,30.11,SSW,202,0.0,0.0,99,0.00,,,0.00,VWS V14.01,2013-10-04 10:32:00,
2013-10-04 06:37:00,58.9,58.6,30.11,SSW,203,0.0,0.0,99,0.00,,,0.08,VWS V14.01,2013-10-04 10:37:00,
2013-10-04 06:42:00,58.9,58.6,30.11,SSW,203,0.0,0.0,99,0.00,,,0.00,VWS V14.01,2013-10-04 10:42:00,
2013-10-04 06:47:00,59.0,59.0,30.11,SSW,202,0.0,0.0,100,0.00,,,0.00,VWS V14.01,2013-10-04 10:47:00,
2013-10-04 06:52:00,59.0,58.7,30.11,SSW,202,0.0,0.0,99,0.00,,,0.00,VWS V14.01,2013-10-04 10:52:00,
2013-10-04 06:57:00,58.9,58.9,30.11,SSW,201,0.0,0.0,100,0.00,,,0.00,VWS V14.01,2013-10-04 10:57:00,
2013-10-04 07:02:00,58.9,58.6,30.11,SSW,201,0.0,0.0,99,0.00,,,0.00,VWS V14.01,2013-10-04 11:02:00,
2013-10-04 07:07:00,59.0,59.0,30.12,SSW,202,0.0,0.0,100,0.00,,,0.00,VWS V14.01,2013-10-04 11:07:00,
2013-10-04 07:12:00,59.0,59.0,30.12,SSW,201,0.0,0.0,100,0.00,,,0.00,VWS V14.01,2013-10-04 11:12:00,
2013-10-04 07:17:00,59.0,59.0,30.12,SSW,201,0.0,0.0,100,0.00,,,0.00,VWS V14.01,2013-10-04 11:17:00,
2013-10-04 07:22:00,59.1,59.1,30.12,SSW,200,0.0,0.0,100,0.00,,,0.00,VWS V14.01,2013-10-04 11:22:00,
2013-10-04 07:27:00,59.2,59.2,30.12,SSW,200,0.0,0.0,100,0.00,,,0.00,VWS V14.01,2013-10-04 11:27:00,
2013-10-04 07:32:00,59.4,59.4,30.12,SSW,200,0.0,0.0,100,0.00,,,0.00,VWS V14.01,2013-10-04 11:32:00,
2013-10-04 07:37:00,59.6,59.6,30.12,SSW,198,0.0,0.0,100,0.00,,,0.00,VWS V14.01,2013-10-04 11:37:00,
2013-10-04 07:42:00,59.7,59.7,30.12,SSW,196,0.0,0.0,100,0.00,,,0.00,VWS V14.01,2013-10-04 11:42:00,
2013-10-04 07:47:00,59.9,59.9,30.12,SSW,213,0.0,0.0,100,0.00,,,0.00,VWS V14.01,2013-10-04 11:47:00,
2013-10-04 07:52:00,60.1,60.1,30.12,SSW,199,0.0,0.0,100,0.00,,,0.00,VWS V14.01,2013-10-04 11:52:00,
2013-10-04 07:57:00,60.4,60.4,30.12,SSW,198,0.0,0.0,100,0.00,,,0.00,VWS V14.01,2013-10-04 11:57:00,
2013-10-04 08:02:00,60.6,60.6,30.12,WSW,238,0.0,0.0,100,0.00,,,0.00,VWS V14.01,2013-10-04 12:02:00,
2013-10-04 08:07:00,60.9,60.9,30.12,WSW,240,0.0,0.0,100,0.00,,,0.00,VWS V14.01,2013-10-04 12:07:00,
2013-10-04 08:12:00,61.1,61.1,30.13,WSW,240,0.0,0.0,100,0.00,,,0.00,VWS V14.01,2013-10-04 12:12:00,
2013-10-04 08:17:00,61.5,61.5,30.12,WSW,241,0.0,0.0,100,0.00,,,0.00,VWS V14.01,2013-10-04 12:17:00,
2013-10-04 08:22:00,61.8,61.8,30.12,WSW,241,0.0,0.0,100,0.00,,,0.00,VWS V14.01,2013-10-04 12:22:00,
2013-10-04 08:27:00,62.1,62.1,30.13,WSW,241,0.0,0.0,100,0.00,,,0.00,VWS V14.01,2013-10-04 12:27:00,
2013-10-04 08:32:00,62.4,62.4,30.13,WSW,241,0.0,0.0,100,0.00,,,0.00,VWS V14.01,2013-10-04 12:32:00,
2013-10-04 08:37:00,62.7,62.7,30.13,WSW,241,0.0,0.0,100,0.00,,,0.00,VWS V14.01,2013-10-04 12:37:00,
2013-10-04 08:42:00,63.0,63.0,30.13,WSW,241,0.0,0.0,100,0.00,,,0.00,VWS V14.01,2013-10-04 12:42:00,
2013-10-04 08:47:00,63.3,63.3,30.13,WSW,241,0.0,0.0,100,0.00,,,0.00,VWS V14.01,2013-10-04 12:47:00,
2013-10-04 08:52:00,63.6,63.6,30.14,WSW,241,0.0,0.0,100,0.00,,,0.00,VWS V14.01,2013-10-04 12:52:00,
2013-10-04 08:57:00,63.9,63.9,30.13,WSW,239,0.0,0.0,100,0.00,,,0.00,VWS V14.01,2013-10-04 12:57:00,
2013-10-04 09:02:00,64.2,64.2,30.14,WSW,237,0.0,0.0,100,0.00,,,0.00,VWS V14.01,2013-10-04 13:02:00,
2013-10-04 09:07:00,64.4,64.4,30.14,WSW,239,0.0,0.0,100,0.00,,,0.00,VWS V14.01,2013-10-04 13:07:00,
2013-10-04 09:12:00,64.6,64.6,30.14,WNW,282,0.0,0.0,100,0.00,,,0.00,VWS V14.01,2013-10-04 13:12:00,
2013-10-04 09:17:00,65.0,65.0,30.14,SSW,207,0.0,0.0,100,0.00,,,0.00,VWS V14.01,2013-10-04 13:17:00,
2013-10-04 09:22:00,65.0,65.0,30.14,SSW,208,0.0,0.0,100,0.00,,,0.00,VWS V14.01,2013-10-04 13:22:00,
2013-10-04 09:27:00,65.3,65.3,30.14,SSW,204,0.0,0.0,100,0.00,,,0.00,VWS V14.01,2013-10-04 13:27:00,
2013-10-04 09:32:00,65.8,65.8,30.14,SW,214,0.0,0.0,100,0.00,,,0.00,VWS V14.01,2013-10-04 13:32:00,
2013-10-04 09:37:00,66.3,66.0,30.14,SW,214,0.0,0.0,99,0.00,,,0.08,VWS V14.01,2013-10-04 13:37:00,
2013-10-04 09:42:00,66.8,66.5,30.14,SW,214,0.0,0.0,99,0.00,,,0.00,VWS V14.01,2013-10-04 13:42:00,
2013-10-04 09:47:00,67.1,66.5,30.14,SW,214,0.0,0.0,98,0.00,,,0.00,VWS V14.01,2013-10-04 13:47:00,
2013-10-04 09:52:00,67.6,66.4,30.14,SW,214,0.0,0.0,96,0.00,,,0.00,VWS V14.01,2013-10-04 13:52:00,
2013-10-04 09:57:00,68.0,66.5,30.14,SW,214,0.0,0.0,95,0.00,,,0.00,VWS V14.01,2013-10-04 13:57:00,
2013-10-04 10:02:00,68.6,66.8,30.14,SW,214,0.0,0.0,94,0.00,,RA,0.00,VWS V14.01,2013-10-04 14:02:00,
2013-10-04 10:07:00,69.2,67.1,30.14,SW,214,0.0,0.0,93,0.00,,RA,0.00,VWS V14.01,2013-10-04 14:07:00,
2013-10-04 10:12:00,69.9,67.2,30.14,SW,214,0.0,0.0,91,0.00,,RA,0.00,VWS V14.01,2013-10-04 14:12:00,
2013-10-04 10:17:00,70.5,67.4,30.14,SW,214,0.0,0.0,90,0.00,,RA,0.00,VWS V14.01,2013-10-04 14:17:00,
2013-10-04 10:22:00,71.0,67.3,30.14,SW,214,0.0,0.0,88,0.00,,RA,0.00,VWS V14.01,2013-10-04 14:22:00,
2013-10-04 10:27:00,71.4,67.3,30.14,SW,214,0.0,0.0,87,0.00,,RA,0.00,VWS V14.01,2013-10-04 14:27:00,
2013-10-04 10:32:00,72.0,67.6,30.13,SW,214,0.0,0.0,86,0.00,,-RA,0.00,VWS V14.01,2013-10-04 14:32:00,
2013-10-04 10:37:00,72.7,67.9,30.13,SW,214,0.0,0.0,85,0.00,,-RA,0.00,VWS V14.01,2013-10-04 14:37:00,
2013-10-04 10:42:00,73.2,67.7,30.13,SSW,198,0.0,0.0,83,0.00,,-RA,0.00,VWS V14.01,2013-10-04 14:42:00,
2013-10-04 10:47:00,73.4,68.3,30.13,SW,230,0.0,0.0,84,0.00,,-RA,0.00,VWS V14.01,2013-10-04 14:47:00,
2013-10-04 10:52:00,73.2,68.1,30.13,SW,230,0.0,0.0,84,0.00,,-RA,0.00,VWS V14.01,2013-10-04 14:52:00,
2013-10-04 10:57:00,73.5,68.4,30.13,SW,229,0.0,0.0,84,0.00,,-RA,0.00,VWS V14.01,2013-10-04 14:57:00,
2013-10-04 11:02:00,74.0,68.5,30.13,WSW,240,0.0,0.0,83,0.00,,,0.00,VWS V14.01,2013-10-04 15:02:00,
2013-10-04 11:07:00,74.7,68.5,30.13,SSW,203,0.0,0.0,81,0.00,,,0.00,VWS V14.01,2013-10-04 15:07:00,
2013-10-04 11:12:00,75.0,68.4,30.12,West,263,0.0,0.0,80,0.00,,,0.00,VWS V14.01,2013-10-04 15:12:00,
2013-10-04 11:17:00,75.8,68.8,30.12,South,184,4.0,6.0,79,0.00,,,0.00,VWS V14.01,2013-10-04 15:17:00,
2013-10-04 11:22:00,76.7,69.3,30.12,SSW,203,6.0,8.0,78,0.00,,,0.00,VWS V14.01,2013-10-04 15:22:00,
2013-10-04 11:27:00,77.3,69.2,30.12,WSW,241,2.0,8.0,76,0.00,,,0.00,VWS V14.01,2013-10-04 15:27:00,
2013-10-04 11:32:00,77.7,69.2,30.12,SSW,209,6.0,7.0,75,0.00,,,0.00,VWS V14.01,2013-10-04 15:32:00,
2013-10-04 11:37:00,77.7,68.8,30.11,SW,223,3.0,8.0,74,0.00,,,0.00,VWS V14.01,2013-10-04 15:37:00,
2013-10-04 11:42:00,77.6,69.1,30.11,SSW,211,5.0,8.0,75,0.00,,,0.00,VWS V14.01,2013-10-04 15:42:00,
2013-10-04 11:47:00,77.7,69.2,30.11,SSW,195,5.0,8.0,75,0.00,,,0.00,VWS V14.01,2013-10-04 15:47:00,
2013-10-04 11:52:00,77.6,69.1,30.11,SW,234,2.0,8.0,75,0.00,,,0.00,VWS V14.01,2013-10-04 15:52:00,
2013-10-04 11:57:00,77.5,69.0,30.11,SW,234,0.0,8.0,75,0.00,,,0.00,VWS V14.01,2013-10-04 15:57:00,
2013-10-04 12:02:00,77.6,69.1,30.11,SSW,212,3.0,5.0,75,0.00,,-RA,0.00,VWS V14.01,2013-10-04 16:02:00,
2013-10-04 12:07:00,77.8,69.2,30.11,SW,222,4.0,7.0,75,0.00,,-RA,0.00,VWS V14.01,2013-10-04 16:07:00,
2013-10-04 12:12:00,77.8,69.2,30.10,SSW,202,2.0,7.0,75,0.00,,-RA,0.00,VWS V14.01,2013-10-04 16:12:00,
2013-10-04 12:17:00,77.5,69.3,30.11,SW,219,4.0,7.0,76,0.00,,-RA,0.00,VWS V14.01,2013-10-04 16:17:00,
2013-10-04 12:22:00,77.1,69.7,30.11,WSW,247,3.0,7.0,78,0.00,,-RA,0.00,VWS V14.01,2013-10-04 16:22:00,
2013-10-04 12:27:00,76.9,69.5,30.10,WSW,247,3.0,7.0,78,0.00,,-RA,0.00,VWS V14.01,2013-10-04 16:27:00,
2013-10-04 12:32:00,77.0,70.0,30.10,SW,236,5.0,5.0,79,0.00,,-RA,0.00,VWS V14.01,2013-10-04 16:32:00,
2013-10-04 12:37:00,77.4,69.6,30.10,SSW,207,3.0,6.0,77,0.00,,-RA,0.00,VWS V14.01,2013-10-04 16:37:00,
2013-10-04 12:42:00,77.7,69.9,30.10,SSW,201,3.0,8.0,77,0.00,,-RA,0.00,VWS V14.01,2013-10-04 16:42:00,
2013-10-04 12:47:00,77.9,70.1,30.10,WSW,256,3.0,8.0,77,0.00,,-RA,0.00,VWS V14.01,2013-10-04 16:47:00,
2013-10-04 12:52:00,78.3,70.1,30.10,WSW,256,0.0,8.0,76,0.00,,-RA,0.00,VWS V14.01,2013-10-04 16:52:00,
2013-10-04 12:57:00,79.0,70.0,30.10,SW,226,6.0,8.0,74,0.00,,-RA,0.00,VWS V14.01,2013-10-04 16:57:00,
2013-10-04 13:02:00,79.6,70.2,30.09,WSW,251,4.0,8.0,73,0.00,,,0.00,VWS V14.01,2013-10-04 17:02:00,
2013-10-04 13:07:00,79.8,70.4,30.09,SW,227,3.0,8.0,73,0.00,,,0.00,VWS V14.01,2013-10-04 17:07:00,
2013-10-04 13:12:00,80.3,70.9,30.09,SSW,210,6.0,8.0,73,0.00,,,0.00,VWS V14.01,2013-10-04 17:12:00,
2013-10-04 13:17:00,80.8,70.9,30.09,SW,225,3.0,8.0,72,0.00,,,0.08,VWS V14.01,2013-10-04 17:17:00,
2013-10-04 13:22:00,81.1,70.4,30.09,WSW,244,4.0,11.0,70,0.00,,,0.00,VWS V14.01,2013-10-04 17:22:00,
2013-10-04 13:27:00,81.1,70.8,30.08,SW,220,5.0,11.0,71,0.00,,,0.00,VWS V14.01,2013-10-04 17:27:00,
2013-10-04 13:32:00,81.6,70.9,30.08,SSW,196,6.0,8.0,70,0.00,,,0.00,VWS V14.01,2013-10-04 17:32:00,
2013-10-04 14:02:00,83.5,71.4,30.07,South,184,3.0,7.0,67,0.00,,FEW110,0.00,VWS V14.01,2013-10-04 18:02:00,
2013-10-04 14:07:00,83.8,71.2,30.07,SW,229,2.0,7.0,66,0.00,,FEW110,0.00,VWS V14.01,2013-10-04 18:07:00,
2013-10-04 14:13:00,83.8,71.2,30.07,SSW,192,5.0,7.0,66,0.00,,FEW110,0.00,VWS V14.01,2013-10-04 18:13:00,
2013-10-04 14:17:00,84.3,71.3,30.07,South,191,4.0,9.0,65,0.00,,FEW110,0.00,VWS V14.01,2013-10-04 18:17:00,
2013-10-04 14:22:00,84.6,71.1,30.06,WSW,258,6.0,9.0,64,0.00,,FEW110,0.00,VWS V14.01,2013-10-04 18:22:00,
2013-10-04 14:28:00,84.4,71.4,30.07,SW,221,6.0,9.0,65,0.00,,FEW110,0.00,VWS V14.01,2013-10-04 18:28:00,
2013-10-04 14:33:00,84.2,71.2,30.07,WSW,246,5.0,9.0,65,0.00,,FEW110,0.00,VWS V14.01,2013-10-04 18:33:00,
2013-10-04 14:38:00,84.0,71.0,30.07,SW,219,4.0,10.0,65,0.00,,FEW110,0.00,VWS V14.01,2013-10-04 18:38:00,
2013-10-04 14:43:00,83.8,71.2,30.06,South,185,3.0,10.0,66,0.00,,FEW110,0.00,VWS V14.01,2013-10-04 18:43:00,
2013-10-04 14:48:00,84.2,71.2,30.06,SSW,206,5.0,10.0,65,0.00,,FEW110,0.00,VWS V14.01,2013-10-04 18:48:00,
2013-10-04 14:53:00,84.0,71.0,30.06,SW,221,4.0,10.0,65,0.00,,FEW110,0.00,VWS V14.01,2013-10-04 18:53:00,
2013-10-04 14:58:00,84.4,71.4,30.06,SSW,210,2.0,10.0,65,0.00,,FEW110,0.00,VWS V14.01,2013-10-04 18:58:00,
2013-10-04 15:03:00,84.5,71.0,30.06,SSW,202,3.0,8.0,64,0.00,,SCT038,0.00,VWS V14.01,2013-10-04 19:03:00,
2013-10-04 15:08:00,84.7,71.2,30.06,SW,219,5.0,10.0,64,0.00,,SCT038,0.00,VWS V14.01,2013-10-04 19:08:00,
2013-10-04 15:13:00,84.5,71.0,30.06,SSW,201,4.0,10.0,64,0.00,,SCT038,0.00,VWS V14.01,2013-10-04 19:13:00,
2013-10-04 15:18:00,84.3,70.8,30.06,SW,228,5.0,10.0,64,0.00,,SCT038,0.00,VWS V14.01,2013-10-04 19:18:00,
2013-10-04 15:23:00,84.0,70.5,30.06,WSW,256,4.0,10.0,64,0.00,,SCT038,0.00,VWS V14.01,2013-10-04 19:23:00,
2013-10-04 15:28:00,84.0,71.0,30.06,SSW,209,5.0,10.0,65,0.00,,SCT038,0.00,VWS V14.01,2013-10-04 19:28:00,
2013-10-04 15:33:00,84.2,70.7,30.06,WSW,251,3.0,7.0,64,0.00,,SCT038,0.00,VWS V14.01,2013-10-04 19:33:00,
2013-10-04 15:38:00,84.6,69.7,30.06,WSW,249,2.0,10.0,61,0.00,,SCT038,0.00,VWS V14.01,2013-10-04 19:38:00,
2013-10-04 15:43:00,85.1,70.2,30.06,WSW,253,2.0,10.0,61,0.00,,SCT038,0.00,VWS V14.01,2013-10-04 19:43:00,
2013-10-04 15:48:00,85.6,70.6,30.06,West,268,3.0,10.0,61,0.00,,SCT038,0.00,VWS V14.01,2013-10-04 19:48:00,
2013-10-04 15:53:00,85.5,70.0,30.08,SW,234,5.0,10.0,60,0.00,,SCT038,0.00,VWS V14.01,2013-10-04 19:53:00,
2013-10-04 15:58:00,85.8,69.8,30.05,WSW,249,3.0,10.0,59,0.00,,SCT038,0.00,VWS V14.01,2013-10-04 19:58:00,
2013-10-04 16:03:00,86.0,70.5,30.05,West,269,0.0,5.0,60,0.00,,BKN055,0.00,VWS V14.01,2013-10-04 20:03:00,
2013-10-04 16:08:00,85.9,70.9,30.05,WSW,255,2.0,7.0,61,0.00,,BKN055,0.00,VWS V14.01,2013-10-04 20:08:00,
2013-10-04 16:13:00,85.1,71.1,30.06,West,266,2.0,7.0,63,0.00,,BKN055,0.00,VWS V14.01,2013-10-04 20:13:00,
2013-10-04 16:18:00,84.5,70.1,30.05,West,266,2.0,7.0,62,0.00,,BKN055,0.00,VWS V14.01,2013-10-04 20:18:00,
2013-10-04 16:23:00,83.9,70.0,30.05,West,266,3.0,7.0,63,0.00,,BKN055,0.00,VWS V14.01,2013-10-04 20:23:00,
2013-10-04 16:28:00,83.5,70.1,30.05,WSW,240,0.0,7.0,64,0.00,,BKN055,0.00,VWS V14.01,2013-10-04 20:28:00,
2013-10-04 16:33:00,83.6,70.1,30.05,WSW,242,3.0,5.0,64,0.00,,BKN055,0.00,VWS V14.01,2013-10-04 20:33:00,
2013-10-04 16:38:00,83.8,69.9,30.05,West,268,4.0,8.0,63,0.00,,BKN055,0.00,VWS V14.01,2013-10-04 20:38:00,
2013-10-04 16:43:00,84.0,70.1,30.05,WSW,247,3.0,8.0,63,0.00,,BKN055,0.00,VWS V14.01,2013-10-04 20:43:00,
2013-10-04 16:48:00,84.3,69.9,30.05,SW,234,4.0,9.0,62,0.00,,BKN055,0.00,VWS V14.01,2013-10-04 20:48:00,
2013-10-04 16:53:00,84.4,70.0,30.05,SW,232,4.0,9.0,62,0.00,,BKN055,0.00,VWS V14.01,2013-10-04 20:53:00,
2013-10-04 16:58:00,84.3,69.9,30.05,WSW,252,0.0,9.0,62,0.00,,BKN055,0.00,VWS V14.01,2013-10-04 20:58:00,
2013-10-04 17:03:00,84.5,70.5,30.05,WSW,245,4.0,6.0,63,0.00,,CLR,0.00,VWS V14.01,2013-10-04 21:03:00,
2013-10-04 17:08:00,84.6,70.6,30.05,SSW,208,7.0,8.0,63,0.00,,CLR,0.00,VWS V14.01,2013-10-04 21:08:00,
2013-10-04 17:13:00,84.4,70.4,30.05,WSW,251,2.0,8.0,63,0.00,,CLR,0.08,VWS V14.01,2013-10-04 21:13:00,
2013-10-04 17:18:00,84.3,70.8,30.05,SW,235,4.0,8.0,64,0.00,,CLR,0.00,VWS V14.01,2013-10-04 21:18:00,
2013-10-04 17:23:00,84.2,70.7,30.06,SW,227,2.0,8.0,64,0.00,,CLR,0.00,VWS V14.01,2013-10-04 21:23:00,
2013-10-04 17:28:00,84.1,70.6,30.05,SSW,205,4.0,8.0,64,0.00,,CLR,0.00,VWS V14.01,2013-10-04 21:28:00,
2013-10-04 17:33:00,84.0,70.5,30.06,SSW,205,0.0,5.0,64,0.00,,CLR,0.00,VWS V14.01,2013-10-04 21:33:00,
2013-10-04 17:38:00,84.0,70.5,30.06,SSW,205,0.0,5.0,64,0.00,,CLR,0.00,VWS V14.01,2013-10-04 21:38:00,
2013-10-04 17:43:00,83.8,70.8,30.06,SSW,205,0.0,5.0,65,0.00,,CLR,0.00,VWS V14.01,2013-10-04 21:43:00,
2013-10-04 17:48:00,83.7,70.7,30.06,SSW,205,2.0,5.0,65,0.00,,CLR,0.00,VWS V14.01,2013-10-04 21:48:00,
2013-10-04 17:53:00,83.7,70.7,30.05,SSW,205,3.0,5.0,65,0.00,,CLR,0.00,VWS V14.01,2013-10-04 21:53:00,
2013-10-04 17:58:00,83.6,70.6,30.05,SSW,205,0.0,5.0,65,0.00,,CLR,0.00,VWS V14.01,2013-10-04 21:58:00,
2013-10-04 18:03:00,83.4,70.4,30.06,SSW,205,0.0,0.0,65,0.00,,CLR,0.00,VWS V14.01,2013-10-04 22:03:00,
2013-10-04 18:08:00,83.2,70.7,30.06,SSW,205,0.0,1.0,66,0.00,,CLR,0.00,VWS V14.01,2013-10-04 22:08:00,
2013-10-04 18:13:00,82.9,70.4,30.06,SSW,205,0.0,1.0,66,0.00,,CLR,0.00,VWS V14.01,2013-10-04 22:13:00,
2013-10-04 18:18:00,82.4,70.3,30.06,SSW,205,0.0,1.0,67,0.00,,CLR,0.00,VWS V14.01,2013-10-04 22:18:00,
2013-10-04 18:23:00,81.8,70.2,30.06,SSW,205,0.0,1.0,68,0.00,,CLR,0.00,VWS V14.01,2013-10-04 22:23:00,
2013-10-04 18:28:00,81.1,70.0,30.06,SSW,205,0.0,1.0,69,0.00,,CLR,0.00,VWS V14.01,2013-10-04 22:28:00,
2013-10-04 18:33:00,80.4,70.1,30.06,SSW,205,0.0,0.0,71,0.00,,CLR,0.00,VWS V14.01,2013-10-04 22:33:00,
2013-10-04 18:38:00,79.6,69.8,30.06,SSW,205,0.0,0.0,72,0.00,,CLR,0.00,VWS V14.01,2013-10-04 22:38:00,
2013-10-04 18:43:00,78.7,69.3,30.06,SSW,205,0.0,0.0,73,0.00,,CLR,0.00,VWS V14.01,2013-10-04 22:43:00,
2013-10-04 18:48:00,78.0,69.4,30.06,SSW,204,0.0,0.0,75,0.00,,CLR,0.00,VWS V14.01,2013-10-04 22:48:00,
2013-10-04 18:53:00,77.3,68.8,30.06,SSW,193,0.0,0.0,75,0.00,,CLR,0.00,VWS V14.01,2013-10-04 22:53:00,
2013-10-04 18:58:00,76.7,68.6,30.06,SSW,193,0.0,0.0,76,0.00,,CLR,0.00,VWS V14.01,2013-10-04 22:58:00,
2013-10-04 19:03:00,76.1,68.4,30.06,SSW,194,0.0,0.0,77,0.00,,CLR,0.00,VWS V14.01,2013-10-04 23:03:00,
2013-10-04 19:08:00,75.5,68.2,30.06,SSW,194,0.0,0.0,78,0.00,,CLR,0.00,VWS V14.01,2013-10-04 23:08:00,
2013-10-04 19:13:00,75.0,67.7,30.06,SSW,197,0.0,0.0,78,0.00,,CLR,0.00,VWS V14.01,2013-10-04 23:13:00,
2013-10-04 19:18:00,74.5,67.9,30.07,South,185,0.0,0.0,80,0.00,,CLR,0.00,VWS V14.01,2013-10-04 23:18:00,
2013-10-04 19:23:00,74.1,67.9,30.07,South,185,0.0,0.0,81,0.00,,CLR,0.00,VWS V14.01,2013-10-04 23:23:00,
2013-10-04 19:28:00,73.6,67.8,30.07,South,186,0.0,0.0,82,0.00,,CLR,0.00,VWS V14.01,2013-10-04 23:28:00,
2013-10-04 19:33:00,73.2,67.4,30.07,South,187,0.0,0.0,82,0.00,,CLR,0.00,VWS V14.01,2013-10-04 23:33:00,
2013-10-04 19:38:00,72.8,67.3,30.07,South,187,0.0,0.0,83,0.00,,CLR,0.00,VWS V14.01,2013-10-04 23:38:00,
2013-10-04 19:43:00,72.4,67.3,30.07,South,186,0.0,0.0,84,0.00,,CLR,0.00,VWS V14.01,2013-10-04 23:43:00,
2013-10-04 19:48:00,72.1,67.0,30.07,South,177,0.0,0.0,84,0.00,,CLR,0.00,VWS V14.01,2013-10-04 23:48:00,
2013-10-04 19:53:00,71.8,66.7,30.07,South,179,0.0,0.0,84,0.00,,CLR,0.00,VWS V14.01,2013-10-04 23:53:00,
2013-10-04 19:58:00,71.6,66.9,30.07,South,180,0.0,0.0,85,0.00,,CLR,0.00,VWS V14.01,2013-10-04 23:58:00,
2013-10-04 20:03:00,71.4,66.7,30.07,South,179,0.0,0.0,85,0.00,,BKN110,0.00,VWS V14.01,2013-10-05 00:03:00,
2013-10-04 20:08:00,71.2,66.5,30.07,South,179,0.0,0.0,85,0.00,,BKN110,0.00,VWS V14.01,2013-10-05 00:08:00,
2013-10-04 20:13:00,71.1,66.7,30.08,South,178,0.0,0.0,86,0.00,,BKN110,0.00,VWS V14.01,2013-10-05 00:13:00,
2013-10-04 20:18:00,71.0,66.6,30.08,South,180,0.0,0.0,86,0.00,,BKN110,0.00,VWS V14.01,2013-10-05 00:18:00,
2013-10-04 20:23:00,71.0,66.6,30.08,South,182,0.0,0.0,86,0.00,,BKN110,0.00,VWS V14.01,2013-10-05 00:23:00,
2013-10-04 20:28:00,70.9,66.5,30.09,South,182,0.0,0.0,86,0.00,,BKN110,0.08,VWS V14.01,2013-10-05 00:28:00,
2013-10-04 20:33:00,71.0,66.6,30.09,South,185,0.0,1.0,86,0.00,,BKN110,0.00,VWS V14.01,2013-10-05 00:33:00,
2013-10-04 20:38:00,71.1,66.7,30.09,South,188,0.0,1.0,86,0.00,,BKN110,0.00,VWS V14.01,2013-10-05 00:38:00,
2013-10-04 20:44:00,71.2,66.5,30.09,South,189,0.0,1.0,85,0.00,,BKN110,0.00,VWS V14.01,2013-10-05 00:44:00,
2013-10-04 20:49:00,71.3,66.6,30.09,South,189,0.0,1.0,85,0.00,,BKN110,0.00,VWS V14.01,2013-10-05 00:49:00,
2013-10-04 20:54:00,71.5,66.8,30.10,South,189,0.0,1.0,85,0.00,,BKN110,0.00,VWS V14.01,2013-10-05 00:54:00,
2013-10-04 20:59:00,71.5,66.8,30.10,South,189,0.0,1.0,85,0.00,,BKN110,0.00,VWS V14.01,2013-10-05 00:59:00,
2013-10-04 21:04:00,71.4,67.0,30.10,South,171,0.0,0.0,86,0.00,,BKN120,0.00,VWS V14.01,2013-10-05 01:04:00,
2013-10-04 21:09:00,71.3,67.2,30.10,South,173,0.0,1.0,87,0.01,,BKN120,0.01,VWS V14.01,2013-10-05 01:09:00,
2013-10-04 21:14:00,71.1,67.4,30.10,South,173,0.0,1.0,88,0.01,,BKN120,0.01,VWS V14.01,2013-10-05 01:14:00,
2013-10-04 21:19:00,70.9,67.5,30.10,South,173,0.0,1.0,89,0.01,,BKN120,0.01,VWS V14.01,2013-10-05 01:19:00,
2013-10-04 21:24:00,70.6,67.2,30.09,South,172,0.0,1.0,89,0.01,,BKN120,0.01,VWS V14.01,2013-10-05 01:24:00,
2013-10-04 21:29:00,70.3,67.2,30.09,South,172,0.0,1.0,90,0.01,,BKN120,0.01,VWS V14.01,2013-10-05 01:29:00,
2013-10-04 21:34:00,70.1,67.0,30.09,South,172,0.0,0.0,90,0.01,,BKN120,0.01,VWS V14.01,2013-10-05 01:34:00,
2013-10-04 21:39:00,69.8,67.1,30.09,South,173,0.0,0.0,91,0.01,,BKN120,0.01,VWS V14.01,2013-10-05 01:39:00,
2013-10-04 21:44:00,69.6,67.2,30.09,South,173,0.0,0.0,92,0.01,,BKN120,0.01,VWS V14.01,2013-10-05 01:44:00,
2013-10-04 21:49:00,69.4,67.3,30.09,South,174,0.0,0.0,93,0.01,,BKN120,0.01,VWS V14.01,2013-10-05 01:49:00,
2013-10-04 21:54:00,69.2,67.4,30.09,South,174,0.0,0.0,94,0.01,,BKN120,0.01,VWS V14.01,2013-10-05 01:54:00,
2013-10-04 21:59:00,69.0,67.2,30.09,South,174,0.0,0.0,94,0.01,,BKN120,0.01,VWS V14.01,2013-10-05 01:59:00,
2013-10-04 22:04:00,68.8,67.0,30.09,South,172,0.0,0.0,94,0.01,,,0.01,VWS V14.01,2013-10-05 02:04:00,
2013-10-04 22:09:00,68.6,66.8,30.09,South,172,0.0,0.0,94,0.01,,,0.01,VWS V14.01,2013-10-05 02:09:00,
2013-10-04 22:14:00,68.4,66.6,30.09,South,172,0.0,0.0,94,0.01,,,0.01,VWS V14.01,2013-10-05 02:14:00,
2013-10-04 22:19:00,68.2,66.7,30.09,South,174,0.0,0.0,95,0.01,,,0.01,VWS V14.01,2013-10-05 02:19:00,
2013-10-04 22:24:00,68.1,66.6,30.09,South,169,0.0,0.0,95,0.01,,,0.01,VWS V14.01,2013-10-05 02:24:00,
2013-10-04 22:29:00,67.9,66.4,30.09,SSE,165,0.0,0.0,95,0.01,,,0.01,VWS V14.01,2013-10-05 02:29:00,
2013-10-04 22:34:00,67.8,66.3,30.09,SSE,167,0.0,0.0,95,0.00,,,0.01,VWS V14.01,2013-10-05 02:34:00,
2013-10-04 22:39:00,67.7,66.5,30.10,SSE,166,0.0,0.0,96,0.00,,,0.01,VWS V14.01,2013-10-05 02:39:00,
2013-10-04 22:44:00,67.5,66.3,30.09,South,170,0.0,0.0,96,0.00,,,0.01,VWS V14.01,2013-10-05 02:44:00,
2013-10-04 22:49:00,67.4,66.2,30.09,South,169,0.0,0.0,96,0.00,,,0.01,VWS V14.01,2013-10-05 02:49:00,
2013-10-04 22:54:00,67.3,66.1,30.09,South,169,0.0,0.0,96,0.00,,,0.01,VWS V14.01,2013-10-05 02:54:00,
2013-10-04 22:59:00,67.2,66.0,30.10,South,171,0.0,0.0,96,0.00,,,0.01,VWS V14.01,2013-10-05 02:59:00,
2013-10-04 23:04:00,67.0,65.8,30.10,South,173,0.0,0.0,96,0.00,,,0.01,VWS V14.01,2013-10-05 03:04:00,
2013-10-04 23:09:00,66.8,65.6,30.10,South,177,0.0,0.0,96,0.00,,,0.01,VWS V14.01,2013-10-05 03:09:00,
2013-10-04 23:14:00,66.5,65.3,30.09,South,177,0.0,0.0,96,0.00,,,0.01,VWS V14.01,2013-10-05 03:14:00,
2013-10-04 23:19:00,66.4,65.2,30.10,South,177,0.0,0.0,96,0.00,,,0.01,VWS V14.01,2013-10-05 03:19:00,
2013-10-04 23:24:00,66.3,65.1,30.09,South,177,0.0,0.0,96,0.00,,,0.01,VWS V14.01,2013-10-05 03:24:00,
2013-10-04 23:29:00,66.2,65.3,30.10,South,175,0.0,0.0,97,0.00,,,0.01,VWS V14.01,2013-10-05 03:29:00,
2013-10-04 23:34:00,66.0,65.1,30.10,South,176,0.0,0.0,97,0.00,,,0.01,VWS V14.01,2013-10-05 03:34:00,
2013-10-04 23:39:00,65.9,65.0,30.09,South,176,0.0,0.0,97,0.00,,,0.01,VWS V14.01,2013-10-05 03:39:00,
2013-10-04 23:44:00,65.8,64.9,30.10,South,177,0.0,0.0,97,0.00,,,0.01,VWS V14.01,2013-10-05 03:44:00,
2013-10-04 23:49:00,65.7,64.8,30.10,South,174,0.0,0.0,97,0.00,,,0.01,VWS V14.01,2013-10-05 03:49:00,
2013-10-04 23:54:00,65.7,64.8,30.09,South,175,0.0,0.0,97,0.00,,,0.01,VWS V14.01,2013-10-05 03:54:00,
2013-10-04 23:59:00,65.8,65.2,30.09,South,175,0.0,0.0,98,0.00,,,0.01,VWS V14.01,2013-10-05 03:59:00,